UAE921 OMDB-HECA

Flight info

Callsign UAE921
Flight time N/A
Altitude 32000
Route ANVIX R401 GIDIS G783 TANSU/N0508F280 G783 ASNUR L883 PUSON/N0507F320 L883 KITUB/N0499F340 Y511 ELONU G799 PMA V10 PEGUR Z712 WEJ L677 CVO
Aircraft B77W/H-SDE2E3GHIJ1J3J4J5M1P2RWXYZ/LB1D1

Departure

Time 2026-04-24 16:10
Airport Dubai International Airport (OMDB)

Arrival

Time N/A
Airport Cairo International Airport (HECA)
Time Latitude Longitude Altitude Speed Heading
2026-04-24 15:12 25.25048 55.35984 76 ft 0 kts 211°
2026-04-24 15:46 25.25060 55.35992 76 ft 2 kts 211°
2026-04-24 15:47 25.25073 55.36000 76 ft 2 kts 210°
2026-04-24 15:47 25.25086 55.36008 76 ft 2 kts 211°
2026-04-24 15:47 25.25099 55.36017 76 ft 2 kts 211°
2026-04-24 15:47 25.25111 55.36027 76 ft 2 kts 233°
2026-04-24 15:48 25.25118 55.36042 76 ft 2 kts 254°
2026-04-24 15:48 25.25120 55.36058 76 ft 2 kts 275°
2026-04-24 15:48 25.25117 55.36074 76 ft 2 kts 295°
2026-04-24 15:48 25.25109 55.36088 76 ft 2 kts 304°
2026-04-24 15:49 25.25101 55.36102 76 ft 2 kts 301°
2026-04-24 15:49 25.25095 55.36112 76 ft 0 kts 301°
2026-04-24 15:53 25.25096 55.36111 76 ft 0 kts 301°
2026-04-24 15:53 25.25100 55.36103 76 ft 2 kts 301°
2026-04-24 15:53 25.25112 55.36082 76 ft 4 kts 301°
2026-04-24 15:54 25.25123 55.36061 76 ft 0 kts 301°
2026-04-24 15:54 25.25127 55.36053 76 ft 2 kts 301°
2026-04-24 15:54 25.25138 55.36033 76 ft 3 kts 301°
2026-04-24 15:54 25.25155 55.36001 76 ft 5 kts 302°
2026-04-24 15:55 25.25181 55.35957 76 ft 7 kts 301°
2026-04-24 15:55 25.25211 55.35901 76 ft 9 kts 301°
2026-04-24 15:55 25.25247 55.35837 76 ft 10 kts 301°
2026-04-24 15:55 25.25287 55.35764 76 ft 11 kts 302°
2026-04-24 15:56 25.25332 55.35684 76 ft 12 kts 301°
2026-04-24 15:56 25.25380 55.35597 76 ft 13 kts 301°
2026-04-24 15:56 25.25431 55.35505 76 ft 14 kts 301°
2026-04-24 15:56 25.25485 55.35408 76 ft 12 kts 300°
2026-04-24 15:57 25.25532 55.35322 76 ft 13 kts 302°
2026-04-24 15:57 25.25579 55.35237 76 ft 9 kts 301°
2026-04-24 15:57 25.25603 55.35194 76 ft 1 kts 301°
2026-04-24 15:57 25.25604 55.35194 76 ft 0 kts 301°
2026-04-24 15:58 25.25604 55.35193 76 ft 0 kts 301°
2026-04-24 15:58 25.25607 55.35187 76 ft 2 kts 301°
2026-04-24 15:58 25.25621 55.35163 76 ft 4 kts 302°
2026-04-24 15:58 25.25652 55.35147 76 ft 6 kts 356°
2026-04-24 15:59 25.25694 55.35167 76 ft 7 kts 31°
2026-04-24 15:59 25.25744 55.35202 76 ft 9 kts 32°
2026-04-24 15:59 25.25803 55.35242 76 ft 10 kts 31°
2026-04-24 15:59 25.25848 55.35273 76 ft 3 kts 31°
2026-04-24 16:00 25.25870 55.35288 76 ft 2 kts 31°
2026-04-24 16:00 25.25887 55.35300 76 ft 3 kts 31°
2026-04-24 16:00 25.25911 55.35316 76 ft 0 kts 31°
2026-04-24 16:00 25.25915 55.35319 76 ft 1 kts 31°
2026-04-24 16:01 25.25936 55.35333 76 ft 5 kts 32°
2026-04-24 16:01 25.25974 55.35380 76 ft 9 kts 58°
2026-04-24 16:01 25.25997 55.35456 76 ft 11 kts 86°
2026-04-24 16:01 25.25979 55.35542 76 ft 12 kts 116°
2026-04-24 16:02 25.25933 55.35629 76 ft 13 kts 121°
2026-04-24 16:02 25.25881 55.35721 76 ft 14 kts 121°
2026-04-24 16:02 25.25827 55.35821 76 ft 15 kts 121°
2026-04-24 16:02 25.25768 55.35925 76 ft 16 kts 121°
2026-04-24 16:03 25.25708 55.36034 76 ft 17 kts 121°
2026-04-24 16:03 25.25644 55.36149 76 ft 17 kts 121°
2026-04-24 16:03 25.25579 55.36267 76 ft 18 kts 121°
2026-04-24 16:03 25.25511 55.36388 76 ft 18 kts 121°
2026-04-24 16:04 25.25442 55.36512 76 ft 19 kts 121°
2026-04-24 16:04 25.25371 55.36641 76 ft 19 kts 121°
2026-04-24 16:04 25.25299 55.36769 76 ft 19 kts 122°
2026-04-24 16:04 25.25226 55.36900 76 ft 20 kts 121°
2026-04-24 16:05 25.25077 55.37169 76 ft 20 kts 121°
2026-04-24 16:05 25.25002 55.37305 76 ft 21 kts 121°
2026-04-24 16:06 25.24847 55.37586 76 ft 21 kts 121°
2026-04-24 16:06 25.24768 55.37730 76 ft 21 kts 121°
2026-04-24 16:06 25.24678 55.37888 76 ft 6 kts 121°
2026-04-24 16:07 25.24664 55.37932 76 ft 5 kts 83°
2026-04-24 16:07 25.24676 55.37954 76 ft 2 kts 44°
2026-04-24 16:07 25.24684 55.37962 76 ft 0 kts 32°
2026-04-24 16:08 25.24685 55.37962 76 ft 0 kts 32°
2026-04-24 16:08 25.24703 55.37974 76 ft 4 kts 32°
2026-04-24 16:09 25.24808 55.38015 77 ft 9 kts 324°
2026-04-24 16:09 25.24839 55.37969 76 ft 0 kts 301°
2026-04-24 16:09 25.24848 55.37952 76 ft 17 kts 301°
2026-04-24 16:09 25.25056 55.37577 76 ft 94 kts 301°
2026-04-24 16:10 25.26761 55.34496 1094 ft 177 kts 302°
2026-04-24 16:11 25.28053 55.32146 2141 ft 191 kts 303°
2026-04-24 16:11 25.28757 55.30880 2733 ft 194 kts 299°
2026-04-24 16:11 25.29140 55.29454 3314 ft 198 kts 274°
2026-04-24 16:12 25.28331 55.26555 4523 ft 202 kts 246°
2026-04-24 16:12 25.27726 55.25156 5134 ft 203 kts 246°
2026-04-24 16:12 25.26521 55.22326 6343 ft 203 kts 246°
2026-04-24 16:13 25.25914 55.20896 6844 ft 209 kts 246°
2026-04-24 16:13 25.24339 55.17832 7147 ft 248 kts 221°
2026-04-24 16:14 25.21055 55.16821 8323 ft 263 kts 180°
2026-04-24 16:14 25.19235 55.17217 8948 ft 271 kts 156°
2026-04-24 16:14 25.16625 55.20443 9821 ft 301 kts 126°
2026-04-24 16:15 25.15685 55.21585 10187 ft 303 kts 143°
2026-04-24 16:15 25.10822 55.23510 11010 ft 335 kts 167°
2026-04-24 16:16 25.06066 55.24804 11745 ft 364 kts 167°
2026-04-24 16:16 25.03564 55.25484 12158 ft 376 kts 167°
2026-04-24 16:17 24.95753 55.27608 14044 ft 389 kts 167°
2026-04-24 16:17 24.90434 55.29052 15249 ft 398 kts 167°
2026-04-24 16:18 24.84955 55.30539 16467 ft 406 kts 168°
2026-04-24 16:18 24.79412 55.32041 17613 ft 415 kts 168°
2026-04-24 16:18 24.76586 55.32807 18232 ft 418 kts 168°
2026-04-24 16:19 24.70903 55.34347 19455 ft 423 kts 168°
2026-04-24 16:19 24.68006 55.35130 20054 ft 426 kts 168°
2026-04-24 16:20 24.62201 55.36700 21229 ft 431 kts 169°
2026-04-24 16:20 24.56332 55.38285 22292 ft 437 kts 169°
2026-04-24 16:20 24.53383 55.39084 23287 ft 428 kts 169°
2026-04-24 16:21 24.47776 55.40600 25173 ft 411 kts 169°
2026-04-24 16:21 24.44992 55.41351 25715 ft 412 kts 169°
2026-04-24 16:21 24.42156 55.42114 26055 ft 417 kts 169°
2026-04-24 16:22 24.39340 55.42872 26395 ft 422 kts 169°
2026-04-24 16:22 24.33559 55.44427 27252 ft 427 kts 169°
2026-04-24 16:22 24.30640 55.45212 27656 ft 430 kts 169°
2026-04-24 16:23 24.27741 55.45991 28042 ft 433 kts 169°
2026-04-24 16:23 24.24782 55.46786 28425 ft 436 kts 169°
2026-04-24 16:23 24.21815 55.47583 28766 ft 439 kts 169°
2026-04-24 16:24 24.15830 55.49189 29486 ft 444 kts 169°
2026-04-24 16:24 24.12791 55.50005 29872 ft 446 kts 169°
2026-04-24 16:24 24.09765 55.50817 30218 ft 448 kts 169°
2026-04-24 16:24 24.06715 55.51634 30510 ft 452 kts 169°
2026-04-24 16:25 24.03604 55.52269 30782 ft 452 kts 177°
2026-04-24 16:25 24.00441 55.52389 31027 ft 452 kts 186°
2026-04-24 16:25 23.97307 55.51978 31344 ft 450 kts 195°
2026-04-24 16:26 23.91221 55.50259 31886 ft 453 kts 199°
2026-04-24 16:26 23.88143 55.49346 31891 ft 453 kts 198°
2026-04-24 16:27 23.79043 55.46645 31884 ft 451 kts 199°
2026-04-24 16:27 23.72922 55.44827 32260 ft 457 kts 199°
2026-04-24 16:27 23.69816 55.43906 32689 ft 457 kts 199°
2026-04-24 16:28 23.66778 55.43006 33027 ft 458 kts 198°
2026-04-24 16:28 23.63665 55.42083 33233 ft 463 kts 199°
2026-04-24 16:28 23.57411 55.40231 33796 ft 467 kts 199°
2026-04-24 16:29 23.54220 55.39287 34118 ft 469 kts 199°
2026-04-24 16:29 23.51056 55.38351 34348 ft 472 kts 199°
2026-04-24 16:29 23.44664 55.36460 34835 ft 477 kts 200°
2026-04-24 16:30 23.38231 55.34558 35323 ft 482 kts 200°
2026-04-24 16:30 23.34937 55.33585 35521 ft 485 kts 200°
2026-04-24 16:30 23.31700 55.32630 35748 ft 487 kts 200°
2026-04-24 16:31 23.28421 55.31663 35859 ft 490 kts 200°
2026-04-24 16:31 23.25107 55.30685 35862 ft 492 kts 200°
2026-04-24 16:31 23.18466 55.28730 35859 ft 491 kts 200°
2026-04-24 16:32 23.11877 55.26759 35854 ft 490 kts 203°
2026-04-24 16:32 23.05890 55.23481 35846 ft 478 kts 221°
2026-04-24 16:33 23.01190 55.18580 35851 ft 466 kts 237°
2026-04-24 16:33 22.97953 55.12559 35859 ft 458 kts 248°
2026-04-24 16:34 22.95220 55.06363 35858 ft 456 kts 248°
2026-04-24 16:34 22.92479 55.00111 35856 ft 458 kts 248°
2026-04-24 16:35 22.89753 54.93891 35855 ft 458 kts 249°
2026-04-24 16:35 22.87023 54.87664 35851 ft 456 kts 249°
2026-04-24 16:36 22.84277 54.81399 35850 ft 459 kts 248°
2026-04-24 16:36 22.81558 54.75208 35849 ft 455 kts 249°
2026-04-24 16:37 22.78839 54.69018 35849 ft 457 kts 249°
2026-04-24 16:37 22.76103 54.62801 35854 ft 456 kts 249°
2026-04-24 16:38 22.73374 54.56604 35855 ft 455 kts 249°
2026-04-24 16:38 22.70648 54.50422 35859 ft 456 kts 249°
2026-04-24 16:39 22.67914 54.44227 35858 ft 454 kts 249°
2026-04-24 16:39 22.65189 54.38045 35857 ft 457 kts 249°
2026-04-24 16:40 22.62468 54.31883 35872 ft 453 kts 248°
2026-04-24 16:40 22.59739 54.25708 35865 ft 456 kts 248°
2026-04-24 16:41 22.57021 54.19568 35866 ft 454 kts 248°
2026-04-24 16:41 22.54280 54.13381 35865 ft 455 kts 248°
2026-04-24 16:42 22.51552 54.07235 35870 ft 454 kts 248°
2026-04-24 16:42 22.48817 54.01078 35873 ft 454 kts 248°
2026-04-24 16:43 22.46088 53.94943 35874 ft 455 kts 248°
2026-04-24 16:43 22.43344 53.88784 35871 ft 453 kts 248°
2026-04-24 16:44 22.40610 53.82653 35869 ft 454 kts 248°
2026-04-24 16:44 22.37890 53.76561 35861 ft 452 kts 248°
2026-04-24 16:45 22.35150 53.70432 35856 ft 451 kts 248°
2026-04-24 16:45 22.32435 53.64367 35852 ft 451 kts 248°
2026-04-24 16:46 22.29698 53.58258 35849 ft 451 kts 248°
2026-04-24 16:46 22.26973 53.52182 35852 ft 451 kts 248°
2026-04-24 16:47 22.24248 53.46117 35848 ft 450 kts 248°
2026-04-24 16:47 22.21490 53.39981 35844 ft 452 kts 249°
2026-04-24 16:48 22.18761 53.33919 35845 ft 451 kts 248°
2026-04-24 16:48 22.16023 53.27844 35846 ft 451 kts 248°
2026-04-24 16:49 22.13281 53.21770 35844 ft 450 kts 248°
2026-04-24 16:49 22.10554 53.15734 35839 ft 449 kts 248°
2026-04-24 16:50 22.07818 53.09685 35834 ft 450 kts 248°
2026-04-24 16:50 22.05066 53.03610 35834 ft 448 kts 248°
2026-04-24 16:51 22.02332 52.97578 35835 ft 450 kts 248°
2026-04-24 16:51 21.99579 52.91517 35831 ft 448 kts 248°
2026-04-24 16:52 21.96845 52.85502 35830 ft 450 kts 248°
2026-04-24 16:52 21.94100 52.79470 35834 ft 448 kts 248°
2026-04-24 16:53 21.91356 52.73446 35840 ft 448 kts 248°
2026-04-24 16:53 21.88606 52.67419 35843 ft 448 kts 248°
2026-04-24 16:54 21.85844 52.61377 35847 ft 449 kts 248°
2026-04-24 16:54 21.83104 52.55389 35844 ft 448 kts 248°
2026-04-24 16:55 21.80341 52.49356 35839 ft 449 kts 248°
2026-04-24 16:55 21.77594 52.43370 35834 ft 447 kts 248°
2026-04-24 16:56 21.74831 52.37353 35834 ft 446 kts 248°
2026-04-24 16:56 21.72078 52.31379 35845 ft 448 kts 248°
2026-04-24 16:57 21.69312 52.25386 35849 ft 446 kts 248°
2026-04-24 16:57 21.66546 52.19398 35846 ft 447 kts 248°
2026-04-24 16:58 21.63790 52.13441 35842 ft 447 kts 248°
2026-04-24 16:58 21.61029 52.07477 35841 ft 446 kts 248°
2026-04-24 16:59 21.58250 52.01484 35835 ft 447 kts 248°
2026-04-24 17:00 21.54103 51.92551 35836 ft 445 kts 248°
2026-04-24 17:00 21.49941 51.83602 35833 ft 446 kts 248°
2026-04-24 17:01 21.46058 51.74581 35835 ft 442 kts 256°
2026-04-24 17:02 21.45050 51.68142 35828 ft 437 kts 271°
2026-04-24 17:02 21.45104 51.64920 35836 ft 436 kts 274°
2026-04-24 17:02 21.45352 51.58454 35833 ft 434 kts 274°
2026-04-24 17:03 21.45716 51.48747 35831 ft 433 kts 274°
2026-04-24 17:04 21.45950 51.42338 35828 ft 433 kts 274°
2026-04-24 17:04 21.46297 51.32654 35844 ft 434 kts 273°
2026-04-24 17:05 21.46525 51.26196 35843 ft 432 kts 273°
2026-04-24 17:06 21.46862 51.16524 35846 ft 433 kts 274°
2026-04-24 17:06 21.47193 51.06833 35845 ft 433 kts 273°
2026-04-24 17:07 21.47411 51.00377 35843 ft 435 kts 274°
2026-04-24 17:08 21.47838 50.87499 35843 ft 435 kts 273°
2026-04-24 17:08 21.48048 50.81056 35843 ft 432 kts 273°
2026-04-24 17:09 21.48460 50.68166 35844 ft 432 kts 273°
2026-04-24 17:10 21.48862 50.55271 35843 ft 431 kts 274°
2026-04-24 17:12 21.49636 50.29552 35860 ft 433 kts 273°
2026-04-24 18:54 25.83558 38.10688 35897 ft 427 kts 294°
2026-04-24 18:55 25.88389 38.02254 35902 ft 433 kts 294°
2026-04-24 18:56 25.91609 37.96631 35917 ft 429 kts 294°
2026-04-24 18:56 25.94803 37.91038 35930 ft 433 kts 294°
2026-04-24 18:57 25.98033 37.85379 35945 ft 431 kts 294°
2026-04-24 18:57 25.99416 37.82516 35951 ft 420 kts 287°
2026-04-24 18:57 26.00439 37.79489 35960 ft 414 kts 280°
2026-04-24 18:58 26.01536 37.73208 35983 ft 414 kts 274°
2026-04-24 18:58 26.02405 37.66907 35964 ft 410 kts 274°
2026-04-24 18:59 26.03260 37.60640 35947 ft 409 kts 274°
2026-04-24 18:59 26.04103 37.54417 35933 ft 410 kts 273°
2026-04-24 19:00 26.04951 37.48120 35922 ft 411 kts 273°
2026-04-24 19:00 26.05792 37.41860 35904 ft 410 kts 274°
2026-04-24 19:01 26.06624 37.35630 35890 ft 412 kts 274°
2026-04-24 19:01 26.07462 37.29339 35888 ft 411 kts 273°
2026-04-24 19:02 26.08156 37.24113 35874 ft 410 kts 273°
2026-04-24 19:02 26.09129 37.16753 35865 ft 414 kts 274°
2026-04-24 19:03 26.09963 37.10430 35853 ft 410 kts 273°